SR 1 @Wilkins Rd, Milford DE USA current weather conditions

sailwx.info

Wind from 210 at 11 knots gusting 17

Last reported at 2019-Dec-09 22:55 UTC.
Time now 2019-Dec-09 23:48 UTC

Location: N 38°53' W 075°23'.
View on Google Maps.

See reports from other nearby stations

  
Tides and Currents Weather Stations Pressure Air Temp Water Temp Dewpoint Dewpoint Depression Visibility Wind Speed Wind Dir Waves Ship Positions
date/time (UTC)wind fromknots sea level pressurealtimeterstation pressurevisibilityair tempwater tempwave heightnotes
2019-Dec-09 22:55 210 11 gusting 17
2019-Dec-09 22:50 210 11 gusting 17
2019-Dec-09 22:45 205 10 gusting 16
2019-Dec-09 22:40 195 8 gusting 12
2019-Dec-09 22:35 190 7 gusting 12
2019-Dec-09 22:30 210 7 gusting 12
2019-Dec-09 22:25 205 7 gusting 9
2019-Dec-09 22:20 200 5 gusting 11
2019-Dec-09 22:15 200 6 gusting 11
2019-Dec-09 22:10 205 7 gusting 9
2019-Dec-09 22:05 210 6 gusting 9
2019-Dec-09 22:00 210 6 gusting 10
2019-Dec-09 21:55 220 7 gusting 10
2019-Dec-09 21:50 225 7 gusting 9
2019-Dec-09 21:45 235 5 gusting 7
2019-Dec-09 21:40 250 5 gusting 9
2019-Dec-09 21:35 220 5 gusting 9
2019-Dec-09 21:30 200 7 gusting 8
2019-Dec-09 21:25 215 4 gusting 9
2019-Dec-09 21:20 200 5 gusting 9
2019-Dec-09 21:15 200 5 gusting 9
2019-Dec-09 21:10 180 5 gusting 9
2019-Dec-09 21:05 180 6 gusting 10
2019-Dec-09 21:00 175 7 gusting 10
2019-Dec-09 20:55 180 5 gusting 8 11.9
2019-Dec-09 20:50 180 4 gusting 8 11.9
2019-Dec-09 20:45 190 6 gusting 8 11.9
2019-Dec-09 20:40 175 6 gusting 9 11.9
2019-Dec-09 20:35 190 6 gusting 9 11.9
2019-Dec-09 20:30 190 7 gusting 10 11.8
2019-Dec-09 20:25 190 7 gusting 11 11.8
2019-Dec-09 20:20 180 6 gusting 11 11.8
2019-Dec-09 20:15 175 7 gusting 10 11.8
2019-Dec-09 20:10 190 6 gusting 8 11.7
2019-Dec-09 20:05 190 4 gusting 7 11.7
2019-Dec-09 20:00 185 4 gusting 8 11.6
2019-Dec-09 19:55 180 5 gusting 8 11.6
2019-Dec-09 19:50 185 5 gusting 8 11.6
2019-Dec-09 19:45 195 5 gusting 8 11.4
2019-Dec-09 19:40 195 4 gusting 8 11.4
2019-Dec-09 19:35 210 6 gusting 8 11.4
2019-Dec-09 19:30 200 5 gusting 8 11.3
2019-Dec-09 19:25 205 4 gusting 7 11.3
2019-Dec-09 19:20 210 3 gusting 6 11.4
2019-Dec-09 19:15 220 4 gusting 6 11.4
2019-Dec-09 19:10 225 5 gusting 6 11.3
2019-Dec-09 19:05 225 3 gusting 8 11.3
2019-Dec-09 19:00 235 4 gusting 8 11.3
2019-Dec-09 18:55 240 5 gusting 8 11.3
2019-Dec-09 18:50 235 4 gusting 6 11.3
2019-Dec-09 18:45 225 5 gusting 6 11.2
2019-Dec-09 18:40 230 3 gusting 5 11.2
2019-Dec-09 18:35 235 4 gusting 6 11.2
2019-Dec-09 18:30 230 4 gusting 9 11.2
2019-Dec-09 18:25 230 6 gusting 9 11.2
2019-Dec-09 18:20 230 6 gusting 9 11.2
2019-Dec-09 18:15 245 6 gusting 9 11.2
2019-Dec-09 18:10 255 6 gusting 9 11.3
2019-Dec-09 18:05 245 6 gusting 9 11.3
2019-Dec-09 18:00 225 5 gusting 9 11.2
2019-Dec-09 17:55 245 5 gusting 9 11.2
2019-Dec-09 17:50 260 6 gusting 10 11.2
2019-Dec-09 17:45 250 8 gusting 10 11.2
2019-Dec-09 17:40 225 5 gusting 9 11.2
2019-Dec-09 17:35 225 7 gusting 9 11.2
2019-Dec-09 17:30 225 6 gusting 9 11.2
2019-Dec-09 17:25 245 6 gusting 12 11.2
2019-Dec-09 17:20 235 6 gusting 12 11.2
2019-Dec-09 17:15 220 7 gusting 12 11.2
2019-Dec-09 17:10 230 7 gusting 12 11.2
2019-Dec-09 17:05 230 6 gusting 12 11.2
2019-Dec-09 17:00 230 9 gusting 12 11.2
2019-Dec-09 16:55 230 8 gusting 11 11.1
2019-Dec-09 16:50 230 8 gusting 11 11.1
2019-Dec-09 16:45 240 7 gusting 10 10.9
2019-Dec-09 16:40 230 6 gusting 11 11.1
2019-Dec-09 16:35 225 7 gusting 11 10.9
2019-Dec-09 16:30 230 6 gusting 12 10.9
2019-Dec-09 16:25 230 7 gusting 15 10.8
2019-Dec-09 16:20 225 11 gusting 16
2019-Dec-09 16:15 220 13 gusting 16
2019-Dec-09 16:10 230 8 gusting 12
2019-Dec-09 16:05 230 7 gusting 13
2019-Dec-09 16:00 235 9 gusting 13
2019-Dec-09 15:55 230 8 gusting 12
2019-Dec-09 15:50 205 7 gusting 12
2019-Dec-09 15:45 210 7 gusting 11
2019-Dec-09 15:40 210 6 gusting 9
2019-Dec-09 15:35 215 6 gusting 10
2019-Dec-09 15:30 200 6 gusting 10
2019-Dec-09 15:25 215 7 gusting 13
2019-Dec-09 15:20 230 9 gusting 13
2019-Dec-09 15:15 225 5 gusting 11
2019-Dec-09 15:10 220 7 gusting 12
2019-Dec-09 15:05 220 8 gusting 12
2019-Dec-09 15:00 225 7 gusting 12
2019-Dec-09 14:55 210 7 gusting 10
2019-Dec-09 14:50 195 5 gusting 10
2019-Dec-09 14:45 205 6 gusting 10
2019-Dec-09 14:40 205 6 gusting 8
2019-Dec-09 14:35 205 6 gusting 9
2019-Dec-09 14:30 205 5 gusting 10
2019-Dec-09 14:25 220 5 gusting 11
2019-Dec-09 14:20 225 7 gusting 12
2019-Dec-09 14:15 230 8 gusting 13
2019-Dec-09 14:10 245 8 gusting 13
2019-Dec-09 14:05 240 7 gusting 11
2019-Dec-09 14:00 225 7 gusting 13
2019-Dec-09 13:55 245 9 gusting 13
2019-Dec-09 13:50 240 9 gusting 13
2019-Dec-09 13:45 240 7 gusting 10
2019-Dec-09 13:40 245 6 gusting 10
2019-Dec-09 13:35 235 7 gusting 11
2019-Dec-09 13:30 210 5 gusting 11
2019-Dec-09 13:25 200 8 gusting 11
2019-Dec-09 13:20 205 8 gusting 10
2019-Dec-09 13:15 205 6 gusting 10
2019-Dec-09 13:10 200 6 gusting 10
2019-Dec-09 13:05 200 6 gusting 10
2019-Dec-09 13:00 175 6 gusting 8
2019-Dec-09 12:55 165 5 gusting 8
2019-Dec-09 12:50 165 5 gusting 6
2019-Dec-09 12:45 170 3 gusting 3
2019-Dec-09 12:40 195 2 gusting 3
2019-Dec-09 12:35 210 2 gusting 3
2019-Dec-09 12:30 210 2 gusting 3
2019-Dec-09 12:25 210 1 gusting 2
2019-Dec-09 12:20 195 1 gusting 2
2019-Dec-09 12:15 195 1 gusting 4
2019-Dec-09 12:10 135 2 gusting 4
2019-Dec-09 12:05 140 2 gusting 4
2019-Dec-09 12:00 165 2 gusting 5
2019-Dec-09 11:55 135 4 gusting 6
2019-Dec-09 11:50 125 4 gusting 6
2019-Dec-09 11:45 125 4 gusting 5
2019-Dec-09 11:40 110 4 gusting 5
2019-Dec-09 11:35 115 3 gusting 5
2019-Dec-09 11:30 110 3 gusting 5
2019-Dec-09 11:25 110 4 gusting 5
2019-Dec-09 11:20 105 3 gusting 4
2019-Dec-09 11:15 100 3 gusting 4
2019-Dec-09 11:10 105 3 gusting 3
2019-Dec-09 11:05 115 3 gusting 3
2019-Dec-09 11:00 135 2 gusting 2
2019-Dec-09 10:55 120 2 gusting 2
2019-Dec-09 10:50 120 0 gusting 1
2019-Dec-09 10:45 270 0 gusting 1
2019-Dec-09 10:40 255 1 gusting 1
2019-Dec-09 10:35 220 0 gusting 1
2019-Dec-09 10:30 145 1 gusting 1
2019-Dec-09 10:25 075 0 gusting 1
2019-Dec-09 10:20 215 0 gusting 1
2019-Dec-09 10:15 025 0 gusting 2
2019-Dec-09 10:10 305 1 gusting 7
2019-Dec-09 10:05 290 3 gusting 7
2019-Dec-09 10:00 310 6 gusting 7
2019-Dec-09 09:55 015 4 gusting 5
2019-Dec-09 09:50 315 2 gusting 5
2019-Dec-09 09:45 340 3 gusting 5
2019-Dec-09 09:40 310 3 gusting 6 6.8
2019-Dec-09 09:35 010 3 gusting 6 6.7
2019-Dec-09 09:30 020 5 gusting 6 6.6
2019-Dec-09 09:25 025 4 gusting 6 6.6
2019-Dec-09 09:20 340 2 gusting 6 6.5
2019-Dec-09 09:15 055 1 gusting 6 6.3
2019-Dec-09 09:10 355 5 gusting 7 6.3
2019-Dec-09 09:05 345 5 gusting 7 6.3
2019-Dec-09 09:00 035 4 gusting 6 6.3
2019-Dec-09 08:55 015 4 gusting 6 6.3
2019-Dec-09 08:50 030 4 gusting 5 6.2
2019-Dec-09 08:45 020 3 gusting 6 6.2
2019-Dec-09 08:40 040 3 gusting 6 6.2
2019-Dec-09 08:35 040 3 gusting 6 6.2
2019-Dec-09 08:30 020 3 gusting 5 6.3
2019-Dec-09 08:25 020 3 gusting 5 6.2
2019-Dec-09 08:20 010 3 gusting 4 6.2
2019-Dec-09 08:15 030 3 gusting 4 6.2
2019-Dec-09 08:10 035 3 gusting 3 6.1
2019-Dec-09 08:05 035 2 gusting 4 6.1
2019-Dec-09 08:00 025 3 gusting 4 6.1
2019-Dec-09 07:55 025 3 gusting 4 6.1
2019-Dec-09 07:50 035 3 gusting 4 6.1
2019-Dec-09 07:45 035 3 gusting 4 6.0
2019-Dec-09 07:40 025 3 gusting 5 6.0
2019-Dec-09 07:35 010 4 gusting 5 6.0
2019-Dec-09 07:30 030 3 gusting 5 6.0
2019-Dec-09 07:25 6.0
2019-Dec-09 07:20 355 4 gusting 5 5.8
2019-Dec-09 07:15 6.0
2019-Dec-09 07:10 010 3 gusting 5 6.0
2019-Dec-09 07:05 035 4 gusting 6 6.0
2019-Dec-09 07:00 020 5 gusting 6 5.8
2019-Dec-09 06:55 020 3 gusting 5 5.8
2019-Dec-09 06:50 015 3 gusting 4 5.8
2019-Dec-09 06:45 015 1 gusting 3 5.7
2019-Dec-09 06:40 020 2 gusting 4 5.6
2019-Dec-09 06:35 025 2 gusting 4 5.6
2019-Dec-09 06:30 005 2 gusting 4 5.6
2019-Dec-09 06:25 030 2 gusting 3 5.6
2019-Dec-09 06:20 005 2 gusting 4 5.6
2019-Dec-09 06:15 015 2 gusting 4 5.5
2019-Dec-09 06:10 020 2 gusting 3 5.5
2019-Dec-09 06:05 020 2 gusting 3 5.5
2019-Dec-09 06:00 010 2 gusting 3 5.5
2019-Dec-09 05:55 020 2 gusting 3 5.5
2019-Dec-09 05:50 020 2 gusting 3 5.6
2019-Dec-09 05:45 020 1 gusting 2 5.6
2019-Dec-09 05:40 010 2 gusting 2 5.6
2019-Dec-09 05:35 355 1 gusting 2 5.7
2019-Dec-09 05:30 005 2 gusting 2 5.8
2019-Dec-09 05:25 345 2 gusting 2 5.8
2019-Dec-09 05:20 355 1 gusting 2 6.1
2019-Dec-09 05:15 355 2 gusting 2 6.1
2019-Dec-09 05:10 6.1
2019-Dec-09 05:05 350 1 gusting 2 6.1
2019-Dec-09 05:00 310 2 gusting 4 6.1
2019-Dec-09 04:55 295 2 gusting 4 6.1
2019-Dec-09 04:50 340 2 gusting 4 6.2
2019-Dec-09 04:45 315 2 gusting 3 6.2
2019-Dec-09 04:40 315 2 gusting 3 6.3
2019-Dec-09 04:35 280 2 gusting 3 6.2
2019-Dec-09 04:30 035 1 gusting 3 6.1
2019-Dec-09 04:25 060 1 gusting 3 6.1
2019-Dec-09 04:20 270 2 gusting 3 6.1
2019-Dec-09 04:15 300 1 gusting 1 6.1
2019-Dec-09 04:10 6.1
2019-Dec-09 04:05 045 2 gusting 4 6.0
2019-Dec-09 04:00 030 1 gusting 4 6.0
2019-Dec-09 03:55 045 3 gusting 4 6.1
2019-Dec-09 03:50 030 2 gusting 4 6.0
2019-Dec-09 03:45 020 3 gusting 5 6.0
2019-Dec-09 03:40 050 5 gusting 5 5.6
2019-Dec-09 03:35 320 1 gusting 2 5.6
2019-Dec-09 03:30 035 2 gusting 3 5.6
2019-Dec-09 03:25 025 2 gusting 3 5.5
2019-Dec-09 03:20 5.5
2019-Dec-09 03:15 355 1 gusting 2 5.3
2019-Dec-09 03:10 350 1 gusting 2 5.3
2019-Dec-09 03:05 350 1 gusting 2 5.3
2019-Dec-09 03:00 025 1 gusting 2 5.3
2019-Dec-09 02:55 330 1 gusting 1 5.5
2019-Dec-09 02:50 345 1 gusting 3 5.3
2019-Dec-09 02:45 015 2 gusting 3 5.3
2019-Dec-09 02:40 355 2 gusting 3 5.2
2019-Dec-09 02:35 355 2 gusting 3 5.1
2019-Dec-09 02:30 335 2 gusting 3 5.1
2019-Dec-09 02:25 335 2 gusting 3 5.1
2019-Dec-09 02:20 345 2 gusting 4 5.1
2019-Dec-09 02:15 335 3 gusting 5 5.0
2019-Dec-09 02:10 345 4 gusting 5 4.8
2019-Dec-09 02:05 340 3 gusting 3 4.6
2019-Dec-09 02:00 4.7
2019-Dec-09 01:55 035 0 gusting 1 4.6
2019-Dec-09 01:50 040 0 gusting 1 4.6
2019-Dec-09 01:45 330 0 gusting 2 4.7
2019-Dec-09 01:40 155 0 gusting 2 5.3
2019-Dec-09 01:35 160 1 gusting 2 5.2
2019-Dec-09 01:30 170 1 gusting 2 5.1
2019-Dec-09 01:25 150 0 gusting 1 5.1
2019-Dec-09 01:20 165 0 gusting 1 5.1
2019-Dec-09 01:15 130 0 gusting 2 4.8
2019-Dec-09 01:10 155 1 gusting 2 4.5
2019-Dec-09 01:05 145 0 gusting 3 4.6
2019-Dec-09 01:00 130 2 gusting 3 4.6
2019-Dec-09 00:55 125 2 gusting 4 4.1
2019-Dec-09 00:50 130 3 gusting 4 4.2
2019-Dec-09 00:45 150 3 gusting 4 4.1
2019-Dec-09 00:40 130 3 gusting 5 3.6
2019-Dec-09 00:35 135 3 gusting 5 3.7
2019-Dec-09 00:30 135 4 gusting 5 3.4
2019-Dec-09 00:25 125 3 gusting 3 4.0
2019-Dec-09 00:20 150 1 gusting 2 4.1
2019-Dec-09 00:15 155 1 gusting 1 4.0
2019-Dec-09 00:10 110 0 gusting 1 4.1
2019-Dec-09 00:05 145 0 gusting 1 4.5
2019-Dec-09 00:00 130 0 gusting 2 4.0
2019-Dec-08 23:55 125 1 gusting 3 4.1
2019-Dec-08 23:50 145 0 gusting 3 3.9
2019-Dec-08 23:45 170 0 gusting 1 3.9
2019-Dec-08 23:40 345 0 gusting 1 3.1
2019-Dec-08 23:35 030 0 gusting 0 3.1
2019-Dec-08 23:30 025 0 gusting 1 3.2
2019-Dec-08 23:25 355 0 gusting 1 3.2
2019-Dec-08 23:20 080 1 gusting 2 3.7
2019-Dec-08 23:15 090 1 gusting 3 3.7
2019-Dec-08 23:10 085 2 gusting 3 4.1
2019-Dec-08 23:05 090 2 gusting 2 4.6
2019-Dec-08 23:00 100 1 gusting 3 4.8
2019-Dec-08 22:55 105 2 gusting 3 5.2
2019-Dec-08 22:50 110 2 gusting 3 5.1
2019-Dec-08 22:45 105 2 gusting 3 5.1
2019-Dec-08 22:40 110 2 gusting 4 5.1
2019-Dec-08 22:35 115 3 gusting 4 5.2
2019-Dec-08 22:30 130 3 gusting 5 5.1
2019-Dec-08 22:25 135 3 gusting 6 5.1
2019-Dec-08 22:20 135 4 gusting 6 5.5
2019-Dec-08 22:15 135 4 gusting 6 6.0
2019-Dec-08 22:10 150 4 gusting 7 6.6
2019-Dec-08 22:05 155 4 gusting 7 6.6
2019-Dec-08 22:00 150 5 gusting 6 6.6
2019-Dec-08 21:55 145 5 gusting 6 6.5
2019-Dec-08 21:50 145 4 gusting 6 6.7
2019-Dec-08 21:45 150 5 gusting 7 7.0
2019-Dec-08 21:40 140 4 gusting 7 6.7
2019-Dec-08 21:35 140 5 gusting 7 7.1
2019-Dec-08 21:30 150 5 gusting 7 7.2
2019-Dec-08 21:25 155 4 gusting 9 7.6
2019-Dec-08 21:20 155 6 gusting 9 7.8
2019-Dec-08 21:15 165 5 gusting 9 8.0
2019-Dec-08 21:10 145 5 gusting 8 8.1
2019-Dec-08 21:05 150 5 gusting 8 8.2
2019-Dec-08 21:00 160 5 gusting 10 8.3
2019-Dec-08 20:55 160 6 gusting 10 8.5
2019-Dec-08 20:50 150 7 gusting 13 8.6
2019-Dec-08 20:45 160 8 gusting 13 8.6
2019-Dec-08 20:40 160 8 gusting 11 8.6
2019-Dec-08 20:35 175 7 gusting 13 8.6
2019-Dec-08 20:30 165 8 gusting 13 8.6
2019-Dec-08 20:25 160 8 gusting 13 8.6
2019-Dec-08 20:20 170 8 gusting 13 8.7
2019-Dec-08 20:15 170 9 gusting 11 8.7
2019-Dec-08 20:10 175 8 gusting 11 8.7
2019-Dec-08 20:05 165 7 gusting 11 8.8
2019-Dec-08 20:00 170 6 gusting 11 8.8
2019-Dec-08 19:55 155 6 gusting 10 9.0
2019-Dec-08 19:50 150 6 gusting 10 9.1
2019-Dec-08 19:45 195 6 gusting 10 9.2
2019-Dec-08 19:40 175 5 gusting 8 9.3
2019-Dec-08 19:35 145 3 gusting 11 9.6
2019-Dec-08 19:30 175 7 gusting 11 9.1
2019-Dec-08 19:25 140 6 gusting 13 9.1
2019-Dec-08 19:20 150 6 gusting 13 9.0
2019-Dec-08 19:15 160 5 gusting 12 8.8
2019-Dec-08 19:10 140 9 gusting 12 9.0
2019-Dec-08 19:05 150 5 gusting 12 9.1
2019-Dec-08 19:00 190 4 gusting 12 8.8
2019-Dec-08 18:55 155 8 gusting 13 8.7
2019-Dec-08 18:50 140 8 gusting 13 8.8
2019-Dec-08 18:45 145 7 gusting 12 8.8
2019-Dec-08 18:40 160 7 gusting 11 8.5
2019-Dec-08 18:35 155 4 gusting 9 8.8
2019-Dec-08 18:30 175 5 gusting 11 8.6
2019-Dec-08 18:25 150 8 gusting 11 8.7
2019-Dec-08 18:20 155 7 gusting 10 8.7
2019-Dec-08 18:15 180 6 gusting 9 8.6
2019-Dec-08 18:10 160 5 gusting 10 8.3
2019-Dec-08 18:05 205 3 gusting 11 8.6
2019-Dec-08 18:00 140 7 gusting 11 8.5
2019-Dec-08 17:55 155 6 gusting 11 8.1
2019-Dec-08 17:50 180 6 gusting 11 8.6
2019-Dec-08 17:45 135 7 gusting 10 8.1
2019-Dec-08 17:40 135 7 gusting 12 8.3
2019-Dec-08 17:35 150 8 gusting 12 8.1
2019-Dec-08 17:30 140 9 gusting 12 8.0
2019-Dec-08 17:25 145 7 gusting 13 7.7
2019-Dec-08 17:20 155 9 gusting 13 7.6
2019-Dec-08 17:15 170 5 gusting 12 7.6
2019-Dec-08 17:10 135 9 gusting 12 7.5
2019-Dec-08 17:05 180 8 gusting 11 7.6
2019-Dec-08 17:00 140 5 gusting 11 7.7
2019-Dec-08 16:55 165 7 gusting 13 7.5
2019-Dec-08 16:50 155 10 gusting 13 7.2
2019-Dec-08 16:45 150 9 gusting 12 7.3
2019-Dec-08 16:40 150 9 gusting 13 7.2
2019-Dec-08 16:35 115 9 gusting 13 7.3
2019-Dec-08 16:30 110 7 gusting 13 7.2
2019-Dec-08 16:25 135 9 gusting 13 7.3
2019-Dec-08 16:20 160 8 gusting 13 6.8
2019-Dec-08 16:15 135 7 gusting 11 6.8
2019-Dec-08 16:10 110 6 gusting 12 6.7
2019-Dec-08 16:05 110 10 gusting 12 6.5
2019-Dec-08 16:00 120 8 gusting 12 6.2
2019-Dec-08 15:55 095 7 gusting 12 6.2
2019-Dec-08 15:50 110 10 gusting 12 6.2
2019-Dec-08 15:45 100 7 gusting 12 6.1
2019-Dec-08 15:40 125 8 gusting 13 6.0
2019-Dec-08 15:35 120 10 gusting 13 6.1
2019-Dec-08 15:30 130 7 gusting 11 6.1
2019-Dec-08 15:25 095 8 gusting 11 6.1
2019-Dec-08 15:20 100 8 gusting 12 6.0
2019-Dec-08 15:15 135 8 gusting 12 6.1
2019-Dec-08 15:10 120 6 gusting 10 5.6
2019-Dec-08 15:05 135 7 gusting 13 5.7
2019-Dec-08 15:00 125 10 gusting 13 5.6
2019-Dec-08 14:55 120 6 gusting 11 5.5
2019-Dec-08 14:50 115 7 gusting 10 5.6
2019-Dec-08 14:45 125 5 gusting 8 5.3
2019-Dec-08 14:40 105 6 gusting 7 5.2
2019-Dec-08 14:35 080 3 gusting 7 5.2
2019-Dec-08 14:30 125 4 gusting 7 5.1
2019-Dec-08 14:25 140 2 gusting 4 4.6
2019-Dec-08 14:20 105 2 gusting 4 4.1
2019-Dec-08 14:15 115 1 gusting 3 3.6
2019-Dec-08 14:10 130 1 gusting 2 3.1
2019-Dec-08 14:05 165 1 gusting 2 2.9
2019-Dec-08 14:00 195 0 gusting 2 2.6
2019-Dec-08 13:55 110 0 gusting 1 1.9
2019-Dec-08 13:50 280 0 gusting 1 1.4
2019-Dec-08 13:45 260 1 gusting 1 0.8
2019-Dec-08 13:40 280 1 gusting 1 0.3
2019-Dec-08 13:35 260 1 gusting 1 -0.5
2019-Dec-08 13:30 295 0 gusting 1 -0.5
2019-Dec-08 13:25 340 0 gusting 1 -1.0
2019-Dec-08 13:20 105 0 gusting 2 -1.5
2019-Dec-08 13:15 285 0 gusting 2 -2.4
2019-Dec-08 13:10 295 1 gusting 2 -2.6
2019-Dec-08 13:05 280 1 gusting 3 -3.0
2019-Dec-08 13:00 275 1 gusting 3 -3.5
2019-Dec-08 12:55 285 2 gusting 2 -3.6
2019-Dec-08 12:50 280 1 gusting 2 -3.9
2019-Dec-08 12:45 290 1 gusting 2 -3.9
2019-Dec-08 12:40 305 0 gusting 1 -3.8
2019-Dec-08 12:35 355 0 gusting 1 -3.4
2019-Dec-08 12:30 090 0 gusting 1 -3.6
2019-Dec-08 12:25 250 0 gusting 1 -4.2
2019-Dec-08 12:20 265 0 gusting 2 -4.0
2019-Dec-08 12:15 260 0 gusting 2 -4.2
2019-Dec-08 12:10 265 0 gusting 2 -4.4
2019-Dec-08 12:05 250 1 gusting 2 -4.7
2019-Dec-08 12:00 235 0 gusting 1 -4.7
2019-Dec-08 11:55 255 0 gusting 1 -4.4
2019-Dec-08 11:50 330 0 gusting 1 -4.4
2019-Dec-08 11:45 320 0 gusting 1 -4.4
2019-Dec-08 11:40 065 0 gusting 1 -4.7
2019-Dec-08 11:35 350 1 gusting 1 -5.2
2019-Dec-08 11:30 340 0 gusting 1 -4.8
2019-Dec-08 11:25 300 0 gusting 0 -3.9
2019-Dec-08 11:20 285 0 gusting 0 -4.2
2019-Dec-08 11:15 320 0 gusting 1 -4.0
2019-Dec-08 11:10 220 0 gusting 1 -4.3
2019-Dec-08 11:05 280 0 gusting 1 -4.3
2019-Dec-08 11:00 045 0 gusting 1 -4.2
2019-Dec-08 10:55 150 0 gusting 3 -3.9
2019-Dec-08 10:50 080 1 gusting 4 -3.6
2019-Dec-08 10:45 085 2 gusting 4 -3.4
2019-Dec-08 10:40 080 2 gusting 4 -2.9
2019-Dec-08 10:35 075 2 gusting 5 -3.5
2019-Dec-08 10:30 080 3 gusting 5 -3.8
2019-Dec-08 10:25 075 3 gusting 5 -3.5
2019-Dec-08 10:20 070 3 gusting 5 -3.3
2019-Dec-08 10:15 080 3 gusting 6 -2.4
2019-Dec-08 10:10 080 3 gusting 6 -1.9
2019-Dec-08 10:05 075 3 gusting 4 -3.4
2019-Dec-08 09:55 065 2 gusting 3 -3.4
2019-Dec-08 09:50 070 2 gusting 5 -3.5
2019-Dec-08 09:45 085 3 gusting 5 -3.9
2019-Dec-08 09:40 065 2 gusting 4 -3.9
2019-Dec-08 09:35 070 2 gusting 3 -3.8
2019-Dec-08 09:30 080 1 gusting 5 -3.5
2019-Dec-08 09:25 065 2 gusting 5 -3.5
2019-Dec-08 09:20 050 2 gusting 5 -3.9
2019-Dec-08 09:15 055 3 gusting 5 -4.2
2019-Dec-08 09:10 050 3 gusting 5 -4.4
2019-Dec-08 09:05 060 3 gusting 5 -4.2
2019-Dec-08 09:00 060 2 gusting 4 -4.4
2019-Dec-08 08:55 065 2 gusting 4 -4.5
2019-Dec-08 08:50 060 2 gusting 4 -4.7
2019-Dec-08 08:45 050 2 gusting 4 -4.7
2019-Dec-08 08:40 060 2 gusting 4 -4.5
2019-Dec-08 08:35 055 3 gusting 4 -4.9
2019-Dec-08 08:30 045 2 gusting 3 -4.9
2019-Dec-08 08:25 045 1 gusting 2 -5.0
2019-Dec-08 08:20 035 1 gusting 2 -4.9
2019-Dec-08 08:15 015 1 gusting 3 -5.2
2019-Dec-08 08:10 060 2 gusting 3 -4.9
2019-Dec-08 08:05 045 1 gusting 2 -4.8
2019-Dec-08 08:00 065 1 gusting 2 -4.2
2019-Dec-08 07:55 080 1 gusting 3 -4.4
2019-Dec-08 07:50 080 1 gusting 4 -4.5
2019-Dec-08 07:45 070 2 gusting 4 -4.7
2019-Dec-08 07:40 085 2 gusting 4 -4.4
2019-Dec-08 07:35 070 3 gusting 4 -4.4
2019-Dec-08 07:30 075 2 gusting 4 -4.8
2019-Dec-08 07:25 075 2 gusting 5 -4.5
2019-Dec-08 07:20 070 3 gusting 5 -4.8
2019-Dec-08 07:15 070 3 gusting 5 -4.4
2019-Dec-08 07:10 070 3 gusting 4 -4.8
2019-Dec-08 07:05 085 2 gusting 4 -4.4
2019-Dec-08 07:00 075 2 gusting 4 -4.9
2019-Dec-08 06:55 075 2 gusting 4 -4.9
2019-Dec-08 06:50 065 1 gusting 3 -4.7
2019-Dec-08 06:45 070 2 gusting 4 -4.4
2019-Dec-08 06:40 070 2 gusting 4 -4.4
2019-Dec-08 06:35 065 2 gusting 4 -4.7
2019-Dec-08 06:30 065 3 gusting 4 -4.7
2019-Dec-08 06:25 055 2 gusting 4 -4.4
2019-Dec-08 06:20 070 2 gusting 4 -4.2
2019-Dec-08 06:15 045 2 gusting 3 -4.4
2019-Dec-08 06:10 040 2 gusting 3 -4.4
2019-Dec-08 06:05 020 2 gusting 3 -4.3
2019-Dec-08 06:00 005 2 gusting 3 -4.0
2019-Dec-08 05:55 350 1 gusting 2 -3.9
2019-Dec-08 05:50 335 2 gusting 3 -3.9
2019-Dec-08 05:45 350 2 gusting 3 -4.2
2019-Dec-08 05:40 355 3 gusting 3 -4.0
2019-Dec-08 05:35 350 3 gusting 3 -4.0
2019-Dec-08 05:30 -4.7
2019-Dec-08 05:25 345 2 gusting 2 -4.0
2019-Dec-08 05:20 345 2 gusting 2 -3.5
2019-Dec-08 05:15 340 1 gusting 1 -3.5
2019-Dec-08 05:10 305 1 gusting 1 -3.5
2019-Dec-08 05:05 330 1 gusting 2 -3.9
2019-Dec-08 05:00 335 1 gusting 2 -4.0
2019-Dec-08 04:55 340 1 gusting 2 -4.2
2019-Dec-08 04:50 325 1 gusting 2 -4.2
2019-Dec-08 04:45 300 1 gusting 2 -3.8
2019-Dec-08 04:40 300 2 gusting 2 -3.4
2019-Dec-08 04:35 300 2 gusting 2 -3.3
2019-Dec-08 04:30 300 2 gusting 2 -3.5
2019-Dec-08 04:25 295 2 gusting 2 -3.5
2019-Dec-08 04:20 285 2 gusting 2 -3.4
2019-Dec-08 04:15 270 2 gusting 2 -2.9
2019-Dec-08 04:10 255 2 gusting 2 -3.0
2019-Dec-08 04:05 260 2 gusting 2 -2.9
2019-Dec-08 04:00 255 1 gusting 1 -2.5
2019-Dec-08 03:55 220 1 gusting 1 -2.4
2019-Dec-08 03:50 225 0 gusting 1 -2.3
2019-Dec-08 03:45 240 0 gusting 1 -2.4
2019-Dec-08 03:40 275 0 gusting 1 -2.1
2019-Dec-08 03:35 280 0 gusting 1 -1.9
2019-Dec-08 03:30 245 0 gusting 1 -2.0
2019-Dec-08 03:25 205 0 gusting 2 -2.0
2019-Dec-08 03:20 270 0 gusting 3 -2.3
2019-Dec-08 03:15 300 2 gusting 3 -2.1
2019-Dec-08 03:10 310 1 gusting 2 -2.3
2019-Dec-08 03:05 305 1 gusting 2 -2.3
2019-Dec-08 03:00 310 0 gusting 1 -2.1
2019-Dec-08 02:55 330 0 gusting 1 -2.0
2019-Dec-08 02:50 300 0 gusting 2 -1.6
2019-Dec-08 02:45 310 1 gusting 2 -1.9
2019-Dec-08 02:40 325 1 gusting 2 -2.6
2019-Dec-08 02:35 330 2 gusting 2 -2.4
2019-Dec-08 02:30 320 1 gusting 1 -1.4
2019-Dec-08 02:25 305 1 gusting 1 -1.4
2019-Dec-08 02:20 285 0 gusting 1 -1.0
2019-Dec-08 02:15 305 0 gusting 1 -1.1
2019-Dec-08 02:10 305 0 gusting 1 -1.0
2019-Dec-08 02:05 265 0 gusting 1 -1.1
2019-Dec-08 02:00 260 0 gusting 2 -1.4
2019-Dec-08 01:55 195 0 gusting 2 -1.5
2019-Dec-08 01:45 265 1 gusting 1 -0.9
2019-Dec-08 01:40 270 1 gusting 1 -0.8
2019-Dec-08 01:35 280 1 gusting 1 -0.5
2019-Dec-08 01:30 290 0 gusting 1 -0.4
2019-Dec-08 01:25 290 0 gusting 1 -0.7
2019-Dec-08 01:20 110 0 gusting 2 -0.8
2019-Dec-08 01:15 320 1 gusting 2 -1.4
2019-Dec-08 01:10 330 1 gusting 2 -0.5
2019-Dec-08 01:05 305 1 gusting 1 -0.4
2019-Dec-08 01:00 290 1 gusting 1 -0.1
2019-Dec-08 00:55 285 1 gusting 2 0.1
2019-Dec-08 00:50 270 0 gusting 2 0.2
2019-Dec-08 00:45 290 1 gusting 1 0.3
2019-Dec-08 00:40 300 0 gusting 1 0.6
2019-Dec-08 00:35 285 1 gusting 1 0.3
2019-Dec-08 00:30 280 1 gusting 1 0.6
2019-Dec-08 00:25 280 0 gusting 1 0.7
2019-Dec-08 00:20 245 0 gusting 1 0.6
2019-Dec-08 00:15 225 0 gusting 2 1.0
2019-Dec-08 00:10 310 0 gusting 2 1.1
2019-Dec-08 00:05 185 0 gusting 2 1.1
2019-Dec-08 00:00 185 0 gusting 2 1.1
2019-Dec-07 23:55 255 0 gusting 2 1.1
2019-Dec-07 23:50 120 0 gusting 2 1.5
2019-Dec-07 23:45 320 1 gusting 2 1.6
2019-Dec-07 23:40 335 1 gusting 2 1.2
2019-Dec-07 23:35 330 2 gusting 2 1.1
2019-Dec-07 23:30 335 1 gusting 2 1.1
2019-Dec-07 23:25 330 0 gusting 2 1.5
2019-Dec-07 23:20 325 0 gusting 2 1.7
2019-Dec-07 23:15 160 0 gusting 2 1.0
2019-Dec-07 23:10 330 1 gusting 3 1.1
2019-Dec-07 23:05 325 2 gusting 3 0.7
2019-Dec-07 23:00 315 2 gusting 4 0.8